SCOUT X-4 DEB, 2011

Orbit data source: Space-Track

SCOUT X-4 DEB, 2011 is space debris in LEO originally from a launch on Thu, 29 Apr 1965 UTC launched from the Wallops Island (WLPIS). Debris objects in space refer to the collection of defunct objects orbiting the Earth. Examples of debris include non-operational satellites, rocket bodies, and fragments generated from explosions, collisions, or faulty payload assembly.

Loading next visibility...
Identifier
2011, 1965-032D
Orbit
LEO
Country
Flag of USUS
Related business
Manufacturer
Unknown
Mission
Spacecraft
Bus & Motor
Unknown
Mass
Unknown
Launch date (UTC)
1965-04-29 (61 years ago)
Launch vehicle
Unknown
Launch site
Wallops Island (WLPIS)
Object type
Payload
Rocket body
Debris
Shape & HBR
Unknown shape, 0.1 m
Radar Cross Section
Small (<0.1 m²)

Expand to show TLE details & history
Last TLE update: 2 days ago

TLE from 2 days ago
0 SCOUT X-4 DEB
1 02011U 65032D   25314.07127786  .00000152  00000-0  35714-3 0  9994
2 02011  41.2003 341.8933 0231360 231.6239 150.0556 13.40690038947914
Epoch: 2025-11-10T01:42Z
TLE epoch observation values (Epoch: 2025-11-10T01:42:38.407Z)
Latitude
14.92809°
Longitude
-75.60557°
Altitude
1,256.62 km
Speed
7.156 km/s
True Right ascension
23h 58m 07s
True Declination
14° 50' 54"
Sunlit
Object was in full shadow at epoch
Visualization orbit readout
Latitude
Unknown
Longitude
Unknown
Altitude
Unknown
Speed
Unknown
Apparent Right ascension
Unknown
Apparent Declination
Unknown
Sunlit
N/A
Visualization observer readout
Local Sidereal Time
02:20:31
Azimuth
Unknown
Elevation
Unknown
Doppler factor
Unknown
Orbital elements
Apogee altitude
1,281.988 km
Perigee altitude
935.554 km
Semi-major axis
7,486.908 km
Eccentricity
0.02314
Inclination
41.2003°
RAAN
341.8933°
Arg. of periapsis
231.6239°
True anomaly
151.34647°
Mean anomaly
150.0556°
Eccentric anomaly
150.70424°
Mean motion
3.35034 °/min
Orbital period
107.45 mins
BSTAR
0.00035714
Loading maneuver chart data...
Computing Atmospheric mass density...
Loading historical data...
Loading historical data...
Loading historical data...
Loading historical data...
Loading historical data...
Loading historical data...
Loading historical data...
Other satellites on launch #32 in the year 1965 (1965-04-29 UTC)

Documentation

Showing up to 5 results
|